Weather History for Wenatchee, WA

Change the Weather History Date:

Sunday, March 25, 2012

  Actual Average Record
Temperature  
Mean Temperature 48 °F 42 °F  
Max Temperature 63 °F 51 °F 74 °F (1960)
Min Temperature 33 °F 32 °F 19 °F (2013)
Degree Days  
Heating Degree Days 17 23  
Month to date heating degree days 592 673  
Since 1 July heating degree days 5030 5872  
Cooling Degree Days 0 0  
Month to date cooling degree days 0 0  
Year to date cooling degree days 0 0  
Moisture  
Dew Point 30 °F    
Average Humidity 51    
Maximum Humidity 75    
Minimum Humidity 27    
Precipitation  
Precipitation 0.00 in 0.06 in 0.40 in (2004)
Month to date precipitation 0.53 1.37  
Year to date precipitation 2.18 4.70  
Snow  
Snow 0.00 in 0.20 in - ()
Month to date snowfall 4.3  
Since 1 July snowfall 50.7  
Snow Depth -    
Sea Level Pressure  
Sea Level Pressure 29.76 in    
Wind  
Wind Speed 10 mph (WNW)    
Max Wind Speed 18 mph    
Max Gust Speed 21 mph    
Visibility 10 miles    
Events      
T = Trace of Precipitation, MM = Missing Value Source: NWS Daily Summary

Daily Weather History Graph

Daily Weather History Graph

Search for Another Location

Airport:

Trip Planner

Search our weather history database for the weather conditions in past years. The results will help you decide how hot, cold, wet, or windy it might be!

Date:

Astronomy

Mar. 25, 2012 Rise Set
Actual Time 6:52 AM PDT 7:21 PM PDT
Civil Twilight 6:21 AM PDT 7:52 PM PDT
Nautical Twilight 5:45 AM PDT 8:28 PM PDT
Astronomical Twilight 5:07 AM PDT 9:06 PM PDT
Moon 7:52 AM PDT (3/25) 10:59 PM PDT (3/25)
Length of Visible Light 13h 30m
Length of Day
12h 29m
Waxing Crescent, 9% of the Moon is Illuminated
Mar 25
Waxing Crescent
Mar 30
First Quarter
Apr 6
Full
Apr 13
Last Quarter
Apr 21
New

Hourly Weather History & Observations

Time (PDT) Temp. Windchill Dew Point Humidity Pressure Visibility Wind Dir Wind Speed Gust Speed Precip Events Conditions
12:55 AM 39.9 °F 36.7 °F 26.1 °F 58% 29.95 in 10.0 mi West 4.6 mph - N/A   Clear
1:55 AM 39.0 °F 33.4 °F 27.0 °F 62% 29.94 in 10.0 mi West 8.1 mph - N/A   Clear
2:55 AM 36.0 °F 32.1 °F 27.0 °F 70% 29.93 in 10.0 mi WNW 4.6 mph - N/A   Clear
3:55 AM 34.0 °F 27.2 °F 26.1 °F 73% 29.92 in 10.0 mi NW 8.1 mph - N/A   Clear
4:55 AM 34.0 °F 26.6 °F 27.0 °F 75% 29.91 in 10.0 mi West 9.2 mph - N/A   Clear
5:55 AM 34.0 °F 25.0 °F 27.0 °F 75% 29.89 in 10.0 mi WNW 12.7 mph - N/A   Clear
6:55 AM 34.0 °F 26.0 °F 27.0 °F 75% 29.87 in 10.0 mi West 10.4 mph - N/A   Clear
7:55 AM 36.0 °F 28.0 °F 27.0 °F 70% 29.85 in 10.0 mi WNW 11.5 mph - N/A   Clear
8:55 AM 37.0 °F 29.3 °F 28.0 °F 70% 29.84 in 10.0 mi West 11.5 mph - N/A   Overcast
9:55 AM 39.9 °F 32.9 °F 28.0 °F 63% 29.82 in 10.0 mi West 11.5 mph - N/A   Partly Cloudy
10:55 AM 45.0 °F 38.2 °F 28.0 °F 52% 29.78 in 10.0 mi West 15.0 mph - N/A   Clear
11:55 AM 48.9 °F - 28.0 °F 44% 29.75 in 10.0 mi West 13.8 mph - N/A   Partly Cloudy
12:55 PM 52.0 °F - 28.0 °F 40% 29.72 in 10.0 mi West 6.9 mph - N/A   Clear
1:55 PM 55.9 °F - 28.9 °F 36% 29.68 in 10.0 mi West 6.9 mph - N/A   Clear
2:55 PM 59.0 °F - 28.9 °F 32% 29.66 in 10.0 mi WNW 4.6 mph - N/A   Clear
3:55 PM 62.1 °F - 28.9 °F 29% 29.64 in 10.0 mi WNW 10.4 mph - N/A   Clear
4:55 PM 63.0 °F - 30.0 °F 29% 29.63 in 10.0 mi NW 12.7 mph - N/A   Clear
5:55 PM 60.1 °F - 30.9 °F 33% 29.62 in 10.0 mi NW 18.4 mph - N/A   Clear
6:55 PM 57.0 °F - 32.0 °F 39% 29.64 in 10.0 mi NNW 10.4 mph - N/A   Clear
7:55 PM 53.1 °F - 34.0 °F 48% 29.64 in 10.0 mi NNW 13.8 mph - N/A   Clear
8:55 PM 52.0 °F - 35.1 °F 53% 29.65 in 10.0 mi NW 9.2 mph - N/A   Clear
9:55 PM 50.0 °F - 35.1 °F 57% 29.64 in 10.0 mi NNW 10.4 mph - N/A   Clear
10:55 PM 48.0 °F - 35.1 °F 61% 29.65 in 10.0 mi NNW 10.4 mph - N/A   Clear
11:55 PM 48.0 °F - 35.1 °F 61% 29.64 in 10.0 mi NNW 8.1 mph - N/A   Clear